Year,Month,Day,Hour,Minute,Value (Times are PST for temperature in C)
2015,07,27,00,00,13.70
2015,07,27,00,01,13.70
2015,07,27,00,02,13.70
2015,07,27,00,03,13.70
2015,07,27,00,04,13.70
2015,07,27,00,05,13.70
2015,07,27,00,06,13.70
2015,07,27,00,07,13.70
2015,07,27,00,08,13.70
2015,07,27,00,09,13.70
2015,07,27,00,10,13.70
2015,07,27,00,11,13.70
2015,07,27,00,12,13.70
2015,07,27,00,13,13.70
2015,07,27,00,14,13.60
2015,07,27,00,15,13.60
2015,07,27,00,16,13.60
2015,07,27,00,17,13.60
2015,07,27,00,18,13.60
2015,07,27,00,19,13.60
2015,07,27,00,20,13.60
2015,07,27,00,21,13.60
2015,07,27,00,22,13.60
2015,07,27,00,23,13.60
2015,07,27,00,24,13.60
2015,07,27,00,25,13.60
2015,07,27,00,26,13.60
2015,07,27,00,27,13.60
2015,07,27,00,28,13.50
2015,07,27,00,29,13.50
2015,07,27,00,30,13.50
2015,07,27,00,31,13.50
2015,07,27,00,32,13.50
2015,07,27,00,33,13.50
2015,07,27,00,34,13.50
2015,07,27,00,35,13.50
2015,07,27,00,36,13.50
2015,07,27,00,37,13.40
2015,07,27,00,38,13.40
2015,07,27,00,39,13.40
2015,07,27,00,40,13.40
2015,07,27,00,41,13.40
2015,07,27,00,42,13.40
2015,07,27,00,43,13.40
2015,07,27,00,44,13.40
2015,07,27,00,45,13.40
2015,07,27,00,46,13.40
2015,07,27,00,47,13.40
2015,07,27,00,48,13.40
2015,07,27,00,49,13.40
2015,07,27,00,50,13.30
2015,07,27,00,51,13.30
2015,07,27,00,52,13.30
2015,07,27,00,53,13.30
2015,07,27,00,54,13.30
2015,07,27,00,55,13.30
2015,07,27,00,56,13.30
2015,07,27,00,57,13.30
2015,07,27,00,58,13.30
2015,07,27,00,59,13.30
2015,07,27,01,00,13.30
2015,07,27,01,01,13.30
2015,07,27,01,02,13.30
2015,07,27,01,03,13.30
2015,07,27,01,04,13.30
2015,07,27,01,05,13.30
2015,07,27,01,06,13.30
2015,07,27,01,07,13.30
2015,07,27,01,08,13.30
2015,07,27,01,09,13.30
2015,07,27,01,10,13.30
2015,07,27,01,11,13.30
2015,07,27,01,12,13.30
2015,07,27,01,13,13.30
2015,07,27,01,14,13.30
2015,07,27,01,15,13.30
2015,07,27,01,16,13.30
2015,07,27,01,17,13.30
2015,07,27,01,18,13.20
2015,07,27,01,19,13.20
2015,07,27,01,20,13.20
2015,07,27,01,21,13.20
2015,07,27,01,22,13.20
2015,07,27,01,23,13.20
2015,07,27,01,24,13.20
2015,07,27,01,25,13.20
2015,07,27,01,26,13.20
2015,07,27,01,27,13.20
2015,07,27,01,28,13.20
2015,07,27,01,29,13.20
2015,07,27,01,30,13.20
2015,07,27,01,31,13.20
2015,07,27,01,32,13.20
2015,07,27,01,33,13.20
2015,07,27,01,34,13.20
2015,07,27,01,35,13.20
2015,07,27,01,36,13.20
2015,07,27,01,37,13.20
2015,07,27,01,38,13.20
2015,07,27,01,39,13.20
2015,07,27,01,40,13.10
2015,07,27,01,41,13.10
2015,07,27,01,42,13.10
2015,07,27,01,43,13.10
2015,07,27,01,44,13.10
2015,07,27,01,45,13.10
2015,07,27,01,46,13.10
2015,07,27,01,47,13.10
2015,07,27,01,48,13.10
2015,07,27,01,49,13.10
2015,07,27,01,50,13.10
2015,07,27,01,51,13.00
2015,07,27,01,52,13.00
2015,07,27,01,53,13.00
2015,07,27,01,54,13.00
2015,07,27,01,55,13.00
2015,07,27,01,56,13.00
2015,07,27,01,57,12.90
2015,07,27,01,58,12.90
2015,07,27,01,59,12.90
2015,07,27,02,00,12.90
2015,07,27,02,01,12.90
2015,07,27,02,02,12.80
2015,07,27,02,03,12.80
2015,07,27,02,04,12.80
2015,07,27,02,05,12.80
2015,07,27,02,06,12.80
2015,07,27,02,07,12.80
2015,07,27,02,08,12.80
2015,07,27,02,09,12.80
2015,07,27,02,10,12.80
2015,07,27,02,11,12.80
2015,07,27,02,12,12.80
2015,07,27,02,13,12.80
2015,07,27,02,14,12.80
2015,07,27,02,15,12.80
2015,07,27,02,16,12.80
2015,07,27,02,17,12.80
2015,07,27,02,18,12.80
2015,07,27,02,19,12.80
2015,07,27,02,20,12.80
2015,07,27,02,21,12.80
2015,07,27,02,22,12.80
2015,07,27,02,23,12.80
2015,07,27,02,24,12.80
2015,07,27,02,25,12.80
2015,07,27,02,26,12.80
2015,07,27,02,27,12.80
2015,07,27,02,28,12.80
2015,07,27,02,29,12.80
2015,07,27,02,30,12.70
2015,07,27,02,31,12.70
2015,07,27,02,32,12.70
2015,07,27,02,33,12.70
2015,07,27,02,34,12.70
2015,07,27,02,35,12.70
2015,07,27,02,36,12.70
2015,07,27,02,37,12.70
2015,07,27,02,38,12.70
2015,07,27,02,39,12.70
2015,07,27,02,40,12.70
2015,07,27,02,41,12.60
2015,07,27,02,42,12.60
2015,07,27,02,43,12.60
2015,07,27,02,44,12.60
2015,07,27,02,45,12.60
2015,07,27,02,46,12.60
2015,07,27,02,47,12.60
2015,07,27,02,48,12.60
2015,07,27,02,49,12.50
2015,07,27,02,50,12.50
2015,07,27,02,51,12.50
2015,07,27,02,52,12.50
2015,07,27,02,53,12.50
2015,07,27,02,54,12.50
2015,07,27,02,55,12.40
2015,07,27,02,56,12.40
2015,07,27,02,57,12.40
2015,07,27,02,58,12.40
2015,07,27,02,59,12.40
2015,07,27,03,00,12.30
2015,07,27,03,01,12.30
2015,07,27,03,02,12.30
2015,07,27,03,03,12.30
2015,07,27,03,04,12.30
2015,07,27,03,05,12.30
2015,07,27,03,06,12.30
2015,07,27,03,07,12.30
2015,07,27,03,08,12.30
2015,07,27,03,09,12.30
2015,07,27,03,10,12.30
2015,07,27,03,11,12.30
2015,07,27,03,12,12.30
2015,07,27,03,13,12.30
2015,07,27,03,14,12.30
2015,07,27,03,15,12.30
2015,07,27,03,16,12.30
2015,07,27,03,17,12.30
2015,07,27,03,18,12.30
2015,07,27,03,19,12.30
2015,07,27,03,20,12.30
2015,07,27,03,21,12.30
2015,07,27,03,22,12.30
2015,07,27,03,23,12.30
2015,07,27,03,24,12.20
2015,07,27,03,25,12.20
2015,07,27,03,26,12.20
2015,07,27,03,27,12.20
2015,07,27,03,28,12.20
2015,07,27,03,29,12.10
2015,07,27,03,30,12.10
2015,07,27,03,31,12.10
2015,07,27,03,32,12.10
2015,07,27,03,33,12.10
2015,07,27,03,34,12.10
2015,07,27,03,35,12.10
2015,07,27,03,36,12.10
2015,07,27,03,37,12.10
2015,07,27,03,38,12.10
2015,07,27,03,39,12.00
2015,07,27,03,40,12.00
2015,07,27,03,41,12.00
2015,07,27,03,42,12.00
2015,07,27,03,43,12.00
2015,07,27,03,44,11.90
2015,07,27,03,45,11.90
2015,07,27,03,46,11.90
2015,07,27,03,47,11.90
2015,07,27,03,48,11.80
2015,07,27,03,49,11.80
2015,07,27,03,50,11.80
2015,07,27,03,51,11.80
2015,07,27,03,52,11.80
2015,07,27,03,53,11.80
2015,07,27,03,54,11.80
2015,07,27,03,55,11.80
2015,07,27,03,56,11.80
2015,07,27,03,57,11.80
2015,07,27,03,58,11.80
2015,07,27,03,59,11.70
2015,07,27,04,00,11.70
2015,07,27,04,01,11.70
2015,07,27,04,02,11.70
2015,07,27,04,03,11.70
2015,07,27,04,04,11.70
2015,07,27,04,05,11.70
2015,07,27,04,06,11.70
2015,07,27,04,07,11.70
2015,07,27,04,08,11.70
2015,07,27,04,09,11.70
2015,07,27,04,10,11.70
2015,07,27,04,11,11.80
2015,07,27,04,12,11.80
2015,07,27,04,13,11.80
2015,07,27,04,14,11.80
2015,07,27,04,15,11.80
2015,07,27,04,16,11.80
2015,07,27,04,17,11.80
2015,07,27,04,18,11.80
2015,07,27,04,19,11.70
2015,07,27,04,20,11.70
2015,07,27,04,21,11.60
2015,07,27,04,22,11.60
2015,07,27,04,23,11.60
2015,07,27,04,24,11.60
2015,07,27,04,25,11.60
2015,07,27,04,26,11.60
2015,07,27,04,27,11.60
2015,07,27,04,28,11.50
2015,07,27,04,29,11.40
2015,07,27,04,30,11.40
2015,07,27,04,31,11.40
2015,07,27,04,32,11.40
2015,07,27,04,33,11.40
2015,07,27,04,34,11.40
2015,07,27,04,35,11.40
2015,07,27,04,36,11.40
2015,07,27,04,37,11.40
2015,07,27,04,38,11.40
2015,07,27,04,39,11.40
2015,07,27,04,40,11.40
2015,07,27,04,41,11.40
2015,07,27,04,42,11.40
2015,07,27,04,43,11.40
2015,07,27,04,44,11.40
2015,07,27,04,45,11.40
2015,07,27,04,46,11.40
2015,07,27,04,47,11.40
2015,07,27,04,48,11.30
2015,07,27,04,49,11.30
2015,07,27,04,50,11.30
2015,07,27,04,51,11.20
2015,07,27,04,52,11.20
2015,07,27,04,53,11.20
2015,07,27,04,54,11.20
2015,07,27,04,55,11.20
2015,07,27,04,56,11.20
2015,07,27,04,57,11.20
2015,07,27,04,58,11.20
2015,07,27,04,59,11.20
2015,07,27,05,00,11.20
2015,07,27,05,01,11.20
2015,07,27,05,02,11.20
2015,07,27,05,03,11.20
2015,07,27,05,04,11.20
2015,07,27,05,05,11.20
2015,07,27,05,06,11.20
2015,07,27,05,07,11.10
2015,07,27,05,08,11.10
2015,07,27,05,09,11.10
2015,07,27,05,10,11.10
2015,07,27,05,11,11.10
2015,07,27,05,12,11.10
2015,07,27,05,13,11.10
2015,07,27,05,14,11.10
2015,07,27,05,15,11.10
2015,07,27,05,16,11.10
2015,07,27,05,17,11.10
2015,07,27,05,18,11.10
2015,07,27,05,19,11.10
2015,07,27,05,20,11.10
2015,07,27,05,21,11.10
2015,07,27,05,22,11.10
2015,07,27,05,23,11.10
2015,07,27,05,24,11.10
2015,07,27,05,25,11.10
2015,07,27,05,26,11.10
2015,07,27,05,27,11.10
2015,07,27,05,28,11.10
2015,07,27,05,29,11.10
2015,07,27,05,30,11.10
2015,07,27,05,31,11.10
2015,07,27,05,32,11.10
2015,07,27,05,33,11.10
2015,07,27,05,34,11.10
2015,07,27,05,35,11.10
2015,07,27,05,36,11.10
2015,07,27,05,37,11.10
2015,07,27,05,38,11.10
2015,07,27,05,39,11.10
2015,07,27,05,40,11.10
2015,07,27,05,41,11.10
2015,07,27,05,42,11.10
2015,07,27,05,43,11.10
2015,07,27,05,44,11.10
2015,07,27,05,45,11.10
2015,07,27,05,46,11.10
2015,07,27,05,47,11.10
2015,07,27,05,48,11.10
2015,07,27,05,49,11.10
2015,07,27,05,50,11.10
2015,07,27,05,51,11.10
2015,07,27,05,52,10.90
2015,07,27,05,53,10.90
2015,07,27,05,54,10.90
2015,07,27,05,55,10.90
2015,07,27,05,56,10.80
2015,07,27,05,57,10.80
2015,07,27,05,58,10.80
2015,07,27,05,59,10.70
2015,07,27,06,00,10.70
2015,07,27,06,01,10.70
2015,07,27,06,02,10.70
2015,07,27,06,03,10.70
2015,07,27,06,04,10.70
2015,07,27,06,05,10.70
2015,07,27,06,06,10.70
2015,07,27,06,07,10.70
2015,07,27,06,08,10.70
2015,07,27,06,09,10.70
2015,07,27,06,10,10.70
2015,07,27,06,11,10.70
2015,07,27,06,12,10.80
2015,07,27,06,13,10.80
2015,07,27,06,14,10.80
2015,07,27,06,15,10.80
2015,07,27,06,16,10.80
2015,07,27,06,17,10.80
2015,07,27,06,18,10.80
2015,07,27,06,19,10.80
2015,07,27,06,20,10.80
2015,07,27,06,21,10.80
2015,07,27,06,22,10.80
2015,07,27,06,23,10.80
2015,07,27,06,24,10.80
2015,07,27,06,25,10.80
2015,07,27,06,26,10.80
2015,07,27,06,27,10.80
2015,07,27,06,28,10.80
2015,07,27,06,29,10.90
2015,07,27,06,30,10.90
2015,07,27,06,31,10.90
2015,07,27,06,32,10.90
2015,07,27,06,33,10.90
2015,07,27,06,34,10.90
2015,07,27,06,35,11.00
2015,07,27,06,36,11.10
2015,07,27,06,37,11.10
2015,07,27,06,38,11.10
2015,07,27,06,39,11.10
2015,07,27,06,40,11.20
2015,07,27,06,41,11.20
2015,07,27,06,42,11.30
2015,07,27,06,43,11.40
2015,07,27,06,44,11.40
2015,07,27,06,45,11.50
2015,07,27,06,46,11.60
2015,07,27,06,47,11.60
2015,07,27,06,48,11.70
2015,07,27,06,49,11.80
2015,07,27,06,50,11.80
2015,07,27,06,51,11.90
2015,07,27,06,52,12.00
2015,07,27,06,53,12.10
2015,07,27,06,54,12.20
2015,07,27,06,55,12.30
2015,07,27,06,56,12.40
2015,07,27,06,57,12.50
2015,07,27,06,58,12.60
2015,07,27,06,59,12.70
2015,07,27,07,00,12.70
2015,07,27,07,01,12.80
2015,07,27,07,02,12.80
2015,07,27,07,03,12.80
2015,07,27,07,04,12.90
2015,07,27,07,05,12.90
2015,07,27,07,06,13.00
2015,07,27,07,07,13.00
2015,07,27,07,08,13.00
2015,07,27,07,09,13.10
2015,07,27,07,10,13.10
2015,07,27,07,11,13.10
2015,07,27,07,12,13.20
2015,07,27,07,13,13.30
2015,07,27,07,14,13.40
2015,07,27,07,15,13.50
2015,07,27,07,16,13.60
2015,07,27,07,17,13.70
2015,07,27,07,18,13.70
2015,07,27,07,19,13.70
2015,07,27,07,20,13.80
2015,07,27,07,21,13.80
2015,07,27,07,22,13.80
2015,07,27,07,23,13.80
2015,07,27,07,24,13.80
2015,07,27,07,25,13.90
2015,07,27,07,26,13.90
2015,07,27,07,27,13.90
2015,07,27,07,28,13.90
2015,07,27,07,29,13.90
2015,07,27,07,30,14.00
2015,07,27,07,31,14.00
2015,07,27,07,32,14.10
2015,07,27,07,33,14.10
2015,07,27,07,34,14.20
2015,07,27,07,35,14.20
2015,07,27,07,36,14.30
2015,07,27,07,37,14.40
2015,07,27,07,38,14.50
2015,07,27,07,39,14.70
2015,07,27,07,40,14.80
2015,07,27,07,41,14.90
2015,07,27,07,42,15.00
2015,07,27,07,43,15.00
2015,07,27,07,44,15.10
2015,07,27,07,45,15.20
2015,07,27,07,46,15.40
2015,07,27,07,47,15.50
2015,07,27,07,48,15.60
2015,07,27,07,49,15.70
2015,07,27,07,50,15.80
2015,07,27,07,51,15.90
2015,07,27,07,52,15.90
2015,07,27,07,53,16.00
2015,07,27,07,54,16.10
2015,07,27,07,55,16.10
2015,07,27,07,56,16.10
2015,07,27,07,57,16.10
2015,07,27,07,58,16.10
2015,07,27,07,59,16.10
2015,07,27,08,00,16.00
2015,07,27,08,01,15.90
2015,07,27,08,02,15.90
2015,07,27,08,03,15.90
2015,07,27,08,04,15.90
2015,07,27,08,05,15.80
2015,07,27,08,06,15.80
2015,07,27,08,07,15.80
2015,07,27,08,08,15.80
2015,07,27,08,09,15.90
2015,07,27,08,10,15.90
2015,07,27,08,11,15.90
2015,07,27,08,12,16.00
2015,07,27,08,13,16.10
2015,07,27,08,14,16.10
2015,07,27,08,15,16.10
2015,07,27,08,16,16.20
2015,07,27,08,17,16.30
2015,07,27,08,18,16.40
2015,07,27,08,19,16.60
2015,07,27,08,20,16.80
2015,07,27,08,21,16.90
2015,07,27,08,22,17.00
2015,07,27,08,23,17.00
2015,07,27,08,24,17.00
2015,07,27,08,25,17.10
2015,07,27,08,26,17.10
2015,07,27,08,27,17.00
2015,07,27,08,28,17.00
2015,07,27,08,29,16.90
2015,07,27,08,30,16.90
2015,07,27,08,31,16.80
2015,07,27,08,32,16.80
2015,07,27,08,33,16.80
2015,07,27,08,34,16.80
2015,07,27,08,35,16.80
2015,07,27,08,36,16.80
2015,07,27,08,37,16.90
2015,07,27,08,38,17.00
2015,07,27,08,39,17.00
2015,07,27,08,40,17.00
2015,07,27,08,41,17.00
2015,07,27,08,42,17.00
2015,07,27,08,43,17.00
2015,07,27,08,44,17.00
2015,07,27,08,45,17.00
2015,07,27,08,46,17.00
2015,07,27,08,47,17.00
2015,07,27,08,48,17.00
2015,07,27,08,49,17.10
2015,07,27,08,50,17.10
2015,07,27,08,51,17.10
2015,07,27,08,52,17.10
2015,07,27,08,53,17.10
2015,07,27,08,54,17.10
2015,07,27,08,55,17.10
2015,07,27,08,56,17.20
2015,07,27,08,57,17.30
2015,07,27,08,58,17.30
2015,07,27,08,59,17.30
2015,07,27,09,00,17.30
2015,07,27,09,01,17.30
2015,07,27,09,02,17.30
2015,07,27,09,03,17.30
2015,07,27,09,04,17.40
2015,07,27,09,05,17.40
2015,07,27,09,06,17.40
2015,07,27,09,07,17.40
2015,07,27,09,08,17.40
2015,07,27,09,09,17.40
2015,07,27,09,10,17.50
2015,07,27,09,11,17.40
2015,07,27,09,12,17.40
2015,07,27,09,13,17.40
2015,07,27,09,14,17.40
2015,07,27,09,15,17.40
2015,07,27,09,16,17.50
2015,07,27,09,17,17.50
2015,07,27,09,18,17.50
2015,07,27,09,19,17.50
2015,07,27,09,20,17.50
2015,07,27,09,21,17.40
2015,07,27,09,22,17.40
2015,07,27,09,23,17.40
2015,07,27,09,24,17.40
2015,07,27,09,25,17.40
2015,07,27,09,26,17.40
2015,07,27,09,27,17.40
2015,07,27,09,28,17.40
2015,07,27,09,29,17.50
2015,07,27,09,30,17.60
2015,07,27,09,31,17.70
2015,07,27,09,32,17.70
2015,07,27,09,33,17.80
2015,07,27,09,34,17.90
2015,07,27,09,35,18.10
2015,07,27,09,36,18.20
2015,07,27,09,37,18.20
2015,07,27,09,38,18.20
2015,07,27,09,39,18.20
2015,07,27,09,40,18.20
2015,07,27,09,41,18.20
2015,07,27,09,42,18.20
2015,07,27,09,43,18.20
2015,07,27,09,44,18.20
2015,07,27,09,45,18.20
2015,07,27,09,46,18.20
2015,07,27,09,47,18.20
2015,07,27,09,48,18.30
2015,07,27,09,49,18.30
2015,07,27,09,50,18.30
2015,07,27,09,51,18.40
2015,07,27,09,52,18.30
2015,07,27,09,53,18.30
2015,07,27,09,54,18.30
2015,07,27,09,55,18.30
2015,07,27,09,56,18.30
2015,07,27,09,57,18.30
2015,07,27,09,58,18.40
2015,07,27,09,59,18.40
2015,07,27,10,00,18.50
2015,07,27,10,01,18.40
2015,07,27,10,02,18.30
2015,07,27,10,03,18.10
2015,07,27,10,04,18.00
2015,07,27,10,05,17.90
2015,07,27,10,06,17.90
2015,07,27,10,07,17.90
2015,07,27,10,08,17.90
2015,07,27,10,09,17.80
2015,07,27,10,10,17.80
2015,07,27,10,11,17.90
2015,07,27,10,12,17.90
2015,07,27,10,13,17.90
2015,07,27,10,14,17.90
2015,07,27,10,15,17.80
2015,07,27,10,16,17.80
2015,07,27,10,17,17.80
2015,07,27,10,18,17.70
2015,07,27,10,19,17.50
2015,07,27,10,20,17.50
2015,07,27,10,21,17.40
2015,07,27,10,22,17.20
2015,07,27,10,23,17.20
2015,07,27,10,24,17.10
2015,07,27,10,25,17.20
2015,07,27,10,26,17.30
2015,07,27,10,27,17.30
2015,07,27,10,28,17.40
2015,07,27,10,29,17.50
2015,07,27,10,30,17.50
2015,07,27,10,31,17.60
2015,07,27,10,32,17.70
2015,07,27,10,33,17.80
2015,07,27,10,34,17.90
2015,07,27,10,35,17.90
2015,07,27,10,36,18.10
2015,07,27,10,37,18.20
2015,07,27,10,38,18.20
2015,07,27,10,39,18.20
2015,07,27,10,40,18.00
2015,07,27,10,41,17.80
2015,07,27,10,42,17.70
2015,07,27,10,43,17.80
2015,07,27,10,44,17.80
2015,07,27,10,45,17.80
2015,07,27,10,46,17.80
2015,07,27,10,47,17.90
2015,07,27,10,48,17.90
2015,07,27,10,49,18.00
2015,07,27,10,50,18.20
2015,07,27,10,51,18.20
2015,07,27,10,52,18.20
2015,07,27,10,53,18.30
2015,07,27,10,54,18.20
2015,07,27,10,55,18.30
2015,07,27,10,56,18.40
2015,07,27,10,57,18.40
2015,07,27,10,58,18.30
2015,07,27,10,59,18.20
2015,07,27,11,00,18.20
2015,07,27,11,01,18.20
2015,07,27,11,02,18.20
2015,07,27,11,03,18.20
2015,07,27,11,04,18.30
2015,07,27,11,05,18.40
2015,07,27,11,06,18.40
2015,07,27,11,07,18.40
2015,07,27,11,08,18.40
2015,07,27,11,09,18.30
2015,07,27,11,10,18.20
2015,07,27,11,11,18.10
2015,07,27,11,12,18.10
2015,07,27,11,13,18.10
2015,07,27,11,14,18.20
2015,07,27,11,15,18.20
2015,07,27,11,16,18.20
2015,07,27,11,17,18.20
2015,07,27,11,18,18.50
2015,07,27,11,19,18.50
2015,07,27,11,20,18.40
2015,07,27,11,21,18.40
2015,07,27,11,22,18.40
2015,07,27,11,23,18.50
2015,07,27,11,24,18.60
2015,07,27,11,25,18.60
2015,07,27,11,26,18.50
2015,07,27,11,27,18.40
2015,07,27,11,28,18.30
2015,07,27,11,29,18.20
2015,07,27,11,30,18.20
2015,07,27,11,31,18.00
2015,07,27,11,32,17.90
2015,07,27,11,33,17.90
2015,07,27,11,34,17.90
2015,07,27,11,35,18.00
2015,07,27,11,36,18.10
2015,07,27,11,37,18.10
2015,07,27,11,38,18.20
2015,07,27,11,39,18.20
2015,07,27,11,40,18.20
2015,07,27,11,41,18.20
2015,07,27,11,42,18.20
2015,07,27,11,43,18.20
2015,07,27,11,44,18.10
2015,07,27,11,45,17.90
2015,07,27,11,46,18.00
2015,07,27,11,47,18.10
2015,07,27,11,48,18.20
2015,07,27,11,49,18.10
2015,07,27,11,50,18.10
2015,07,27,11,51,18.00
2015,07,27,11,52,17.90
2015,07,27,11,53,17.90
2015,07,27,11,54,18.00
2015,07,27,11,55,18.10
2015,07,27,11,56,18.30
2015,07,27,11,57,18.30
2015,07,27,11,58,18.20
2015,07,27,11,59,18.20
2015,07,27,12,00,18.30
2015,07,27,12,01,18.30
2015,07,27,12,02,18.20
2015,07,27,12,03,18.20
2015,07,27,12,04,18.20
2015,07,27,12,05,18.20
2015,07,27,12,06,18.20
2015,07,27,12,07,18.20
2015,07,27,12,08,18.20
2015,07,27,12,09,18.40
2015,07,27,12,10,18.50
2015,07,27,12,11,18.50
2015,07,27,12,12,18.40
2015,07,27,12,13,18.40
2015,07,27,12,14,18.40
2015,07,27,12,15,18.40
2015,07,27,12,16,18.30
2015,07,27,12,17,18.30
2015,07,27,12,18,18.40
2015,07,27,12,19,18.50
2015,07,27,12,20,18.60
2015,07,27,12,21,18.70
2015,07,27,12,22,18.80
2015,07,27,12,23,18.80
2015,07,27,12,24,18.70
2015,07,27,12,25,18.50
2015,07,27,12,26,18.40
2015,07,27,12,27,18.30
2015,07,27,12,28,18.30
2015,07,27,12,29,18.30
2015,07,27,12,30,18.30
2015,07,27,12,31,18.20
2015,07,27,12,32,18.20
2015,07,27,12,33,18.30
2015,07,27,12,34,18.30
2015,07,27,12,35,18.30
2015,07,27,12,36,18.30
2015,07,27,12,37,18.30
2015,07,27,12,38,18.30
2015,07,27,12,39,18.30
2015,07,27,12,40,18.40
2015,07,27,12,41,18.50
2015,07,27,12,42,18.50
2015,07,27,12,43,18.60
2015,07,27,12,44,18.50
2015,07,27,12,45,18.50
2015,07,27,12,46,18.60
2015,07,27,12,47,18.70
2015,07,27,12,48,18.90
2015,07,27,12,49,18.90
2015,07,27,12,50,18.90
2015,07,27,12,51,18.90
2015,07,27,12,52,18.70
2015,07,27,12,53,18.70
2015,07,27,12,54,18.70
2015,07,27,12,55,18.70
2015,07,27,12,56,18.60
2015,07,27,12,57,18.50
2015,07,27,12,58,18.50
2015,07,27,12,59,18.40
2015,07,27,13,00,18.40
2015,07,27,13,01,18.40
2015,07,27,13,02,18.50
2015,07,27,13,03,18.60
2015,07,27,13,04,18.60
2015,07,27,13,05,18.70
2015,07,27,13,06,18.70
2015,07,27,13,07,18.80
2015,07,27,13,08,19.10
2015,07,27,13,09,19.10
2015,07,27,13,10,19.10
2015,07,27,13,11,19.10
2015,07,27,13,12,19.00
2015,07,27,13,13,19.00
2015,07,27,13,14,19.10
2015,07,27,13,15,19.10
2015,07,27,13,16,19.00
2015,07,27,13,17,19.10
2015,07,27,13,18,19.10
2015,07,27,13,19,19.10
2015,07,27,13,20,19.10
2015,07,27,13,21,19.10
2015,07,27,13,22,19.20
2015,07,27,13,23,19.20
2015,07,27,13,24,19.20
2015,07,27,13,25,19.30
2015,07,27,13,26,19.50
2015,07,27,13,27,19.60
2015,07,27,13,28,19.50
2015,07,27,13,29,19.50
2015,07,27,13,30,19.30
2015,07,27,13,31,19.30
2015,07,27,13,32,19.40
2015,07,27,13,33,19.40
2015,07,27,13,34,19.60
2015,07,27,13,35,19.70
2015,07,27,13,36,19.70
2015,07,27,13,37,19.50
2015,07,27,13,38,19.40
2015,07,27,13,39,19.30
2015,07,27,13,40,19.30
2015,07,27,13,41,19.40
2015,07,27,13,42,19.50
2015,07,27,13,43,19.50
2015,07,27,13,44,19.50
2015,07,27,13,45,19.40
2015,07,27,13,46,19.50
2015,07,27,13,47,19.50
2015,07,27,13,48,19.50
2015,07,27,13,49,19.40
2015,07,27,13,50,19.40
2015,07,27,13,51,19.30
2015,07,27,13,52,19.30
2015,07,27,13,53,19.40
2015,07,27,13,54,19.40
2015,07,27,13,55,19.40
2015,07,27,13,56,19.40
2015,07,27,13,57,19.40
2015,07,27,13,58,19.40
2015,07,27,13,59,19.40
2015,07,27,14,00,19.50
2015,07,27,14,01,19.60
2015,07,27,14,02,19.80
2015,07,27,14,03,19.80
2015,07,27,14,04,19.90
2015,07,27,14,05,19.90
2015,07,27,14,06,19.90
2015,07,27,14,07,19.90
2015,07,27,14,08,19.90
2015,07,27,14,09,20.00
2015,07,27,14,10,20.00
2015,07,27,14,11,19.90
2015,07,27,14,12,20.00
2015,07,27,14,13,20.20
2015,07,27,14,14,20.20
2015,07,27,14,15,20.00
2015,07,27,14,16,19.90
2015,07,27,14,17,19.80
2015,07,27,14,18,19.80
2015,07,27,14,19,19.70
2015,07,27,14,20,19.60
2015,07,27,14,21,19.50
2015,07,27,14,22,19.40
2015,07,27,14,23,19.30
2015,07,27,14,24,19.10
2015,07,27,14,25,19.10
2015,07,27,14,26,19.10
2015,07,27,14,27,19.10
2015,07,27,14,28,19.20
2015,07,27,14,29,19.40
2015,07,27,14,30,19.30
2015,07,27,14,31,19.20
2015,07,27,14,32,19.20
2015,07,27,14,33,19.30
2015,07,27,14,34,19.30
2015,07,27,14,35,19.40
2015,07,27,14,36,19.40
2015,07,27,14,37,19.50
2015,07,27,14,38,19.50
2015,07,27,14,39,19.40
2015,07,27,14,40,19.40
2015,07,27,14,41,19.50
2015,07,27,14,42,19.50
2015,07,27,14,43,19.60
2015,07,27,14,44,19.60
2015,07,27,14,45,19.70
2015,07,27,14,46,19.60
2015,07,27,14,47,19.60
2015,07,27,14,48,19.60
2015,07,27,14,49,19.70
2015,07,27,14,50,19.80
2015,07,27,14,51,19.90
2015,07,27,14,52,19.90
2015,07,27,14,53,19.90
2015,07,27,14,54,20.00
2015,07,27,14,55,20.20
2015,07,27,14,56,20.20
2015,07,27,14,57,20.20
2015,07,27,14,58,20.20
2015,07,27,14,59,20.00
2015,07,27,15,00,19.90
2015,07,27,15,01,19.90
2015,07,27,15,02,19.90
2015,07,27,15,03,19.90
2015,07,27,15,04,19.90
2015,07,27,15,05,19.90
2015,07,27,15,06,19.90
2015,07,27,15,07,20.00
2015,07,27,15,08,20.00
2015,07,27,15,09,19.90
2015,07,27,15,10,19.90
2015,07,27,15,11,19.90
2015,07,27,15,12,20.00
2015,07,27,15,13,20.10
2015,07,27,15,14,20.10
2015,07,27,15,15,20.10
2015,07,27,15,16,20.00
2015,07,27,15,17,19.90
2015,07,27,15,18,19.90
2015,07,27,15,19,19.90
2015,07,27,15,20,19.90
2015,07,27,15,21,19.90
2015,07,27,15,22,19.80
2015,07,27,15,23,19.70
2015,07,27,15,24,19.60
2015,07,27,15,25,19.50
2015,07,27,15,26,19.50
2015,07,27,15,27,19.60
2015,07,27,15,28,19.60
2015,07,27,15,29,19.50
2015,07,27,15,30,19.50
2015,07,27,15,31,19.30
2015,07,27,15,32,19.30
2015,07,27,15,33,19.40
2015,07,27,15,34,19.50
2015,07,27,15,35,19.60
2015,07,27,15,36,19.60
2015,07,27,15,37,19.60
2015,07,27,15,38,19.60
2015,07,27,15,39,19.50
2015,07,27,15,40,19.40
2015,07,27,15,41,19.40
2015,07,27,15,42,19.50
2015,07,27,15,43,19.70
2015,07,27,15,44,19.90
2015,07,27,15,45,19.90
2015,07,27,15,46,20.10
2015,07,27,15,47,20.10
2015,07,27,15,48,20.20
2015,07,27,15,49,20.20
2015,07,27,15,50,20.20
2015,07,27,15,51,20.30
2015,07,27,15,52,20.50
2015,07,27,15,53,20.50
2015,07,27,15,54,20.50
2015,07,27,15,55,20.30
2015,07,27,15,56,20.10
2015,07,27,15,57,20.00
2015,07,27,15,58,19.90
2015,07,27,15,59,20.00
2015,07,27,16,00,20.10
2015,07,27,16,01,20.10
2015,07,27,16,02,20.10
2015,07,27,16,03,20.20
2015,07,27,16,04,20.10
2015,07,27,16,05,20.10
2015,07,27,16,06,20.20
2015,07,27,16,07,20.20
2015,07,27,16,08,20.20
2015,07,27,16,09,20.20
2015,07,27,16,10,20.20
2015,07,27,16,11,20.10
2015,07,27,16,12,20.00
2015,07,27,16,13,19.90
2015,07,27,16,14,19.90
2015,07,27,16,15,19.90
2015,07,27,16,16,19.90
2015,07,27,16,17,20.00
2015,07,27,16,18,20.10
2015,07,27,16,19,20.00
2015,07,27,16,20,19.90
2015,07,27,16,21,19.90
2015,07,27,16,22,19.90
2015,07,27,16,23,19.90
2015,07,27,16,24,19.90
2015,07,27,16,25,19.80
2015,07,27,16,26,19.70
2015,07,27,16,27,19.70
2015,07,27,16,28,19.80
2015,07,27,16,29,19.80
2015,07,27,16,30,19.70
2015,07,27,16,31,19.70
2015,07,27,16,32,19.70
2015,07,27,16,33,19.70
2015,07,27,16,34,19.70
2015,07,27,16,35,19.80
2015,07,27,16,36,19.80
2015,07,27,16,37,19.90
2015,07,27,16,38,19.90
2015,07,27,16,39,19.90
2015,07,27,16,40,19.90
2015,07,27,16,41,19.90
2015,07,27,16,42,20.00
2015,07,27,16,43,20.10
2015,07,27,16,44,20.00
2015,07,27,16,45,19.90
2015,07,27,16,46,19.90
2015,07,27,16,47,19.90
2015,07,27,16,48,19.90
2015,07,27,16,49,19.90
2015,07,27,16,50,19.90
2015,07,27,16,51,19.90
2015,07,27,16,52,19.90
2015,07,27,16,53,19.80
2015,07,27,16,54,19.80
2015,07,27,16,55,19.80
2015,07,27,16,56,19.80
2015,07,27,16,57,19.80
2015,07,27,16,58,19.80
2015,07,27,16,59,19.80
2015,07,27,17,00,19.90
2015,07,27,17,01,19.90
2015,07,27,17,02,19.90
2015,07,27,17,03,19.80
2015,07,27,17,04,19.90
2015,07,27,17,05,19.90
2015,07,27,17,06,20.00
2015,07,27,17,07,20.10
2015,07,27,17,08,20.20
2015,07,27,17,09,20.20
2015,07,27,17,10,20.10
2015,07,27,17,11,20.00
2015,07,27,17,12,19.90
2015,07,27,17,13,19.90
2015,07,27,17,14,20.00
2015,07,27,17,15,20.10
2015,07,27,17,16,20.20
2015,07,27,17,17,20.20
2015,07,27,17,18,20.30
2015,07,27,17,19,20.30